EW5186 Weather Reports


time (UTC)temp
F
wind
direction
speed
knots
gust
knots
rain 1hr
in
rain 24hr
in
rain mn
in
humidity
%
barometer
mb
20260502151519 55 85 2.6 7.0 0.00 0.01 0.01 74 1013.1
20260502123031 50 347 0.0 0.9 0.01 0.01 0.01 90 1013.3
20260502121539 49 103 0.0 0.9 0.01 0.01 0.01 90 1013.1
20260502114527 48 38 0.0 0.9 0.01 0.01 0.01 91 1013.3
20260502113026 47 275 0.0 1.7 0.00 0.00 0.00 92 1014.1
20260502111526 47 229 0.0 0.0 0.00 0.00 0.00 92 1014.0
20260502110006 47 243 0.0 0.0 0.00 0.00 0.00 92 1013.7
20260502104506 47 98 0.0 0.0 0.00 0.00 0.00 92 1013.6
20260502103102 47 98 0.0 0.0 0.00 0.00 0.00 91 1013.5
20260502101558 47 98 0.0 0.0 0.00 0.00 0.00 91 1013.4
20260502091516 47 99 0.0 0.0 0.00 0.00 0.00 89 1012.7
20260502071511 48 205 0.0 0.0 0.00 0.00 0.00 84 1012.9
20260502070008 48 139 0.0 0.0 0.00 0.00 0.00 84 1012.9
20260502064502 48 143 0.0 0.9 0.00 0.00 0.00 84 1013.1
20260502063005 48 86 0.0 0.9 0.00 0.00 0.00 83 1013.0
20260502061600 48 153 0.0 0.0 0.00 0.00 0.00 83 1013.0
20260502060034 49 86 0.0 1.7 0.00 0.00 0.00 83 1013.1
20260502054541 49 141 0.0 1.7 0.00 0.00 0.00 83 1013.2
20260502053020 49 267 0.0 0.9 0.00 0.00 0.00 82 1013.4
20260502051518 49 138 0.0 0.9 0.00 0.00 0.00 81 1013.5
20260502050016 48 148 0.0 2.6 0.00 0.00 0.00 81 1013.6
20260502044514 49 115 0.0 0.0 0.00 0.00 0.00 80 1013.7
20260502043011 49 298 0.0 0.9 0.00 0.00 0.00 78 1013.6
20260502041509 50 205 0.0 5.2 0.00 0.00 0.00 77 1013.7
20260502040010 50 176 0.0 1.7 0.00 0.00 0.00 77 1013.7
20260502034507 50 153 0.0 2.6 0.00 0.00 0.00 76 1013.8
20260502033058 50 170 0.0 3.5 0.00 0.00 0.00 77 1013.6
20260502031557 51 150 0.0 1.7 0.00 0.00 0.00 77 1013.7
20260502030058 51 155 0.0 1.7 0.00 0.00 0.00 76 1013.7
20260502024555 51 119 0.0 0.9 0.00 0.00 0.00 76 1013.7
20260502023056 51 141 0.0 1.7 0.00 0.00 0.00 75 1013.7
20260502021554 51 131 0.0 0.9 0.00 0.00 0.00 75 1013.9
20260502020054 51 162 0.0 0.9 0.00 0.00 0.00 75 1013.7
20260502014654 51 143 0.0 0.9 0.00 0.00 0.00 74 1013.6
20260502013043 52 84 0.0 1.7 0.00 0.00 0.00 73 1013.7
20260502011535 52 155 0.0 1.7 0.00 0.00 0.00 73 1013.7
20260502010016 52 142 0.0 2.6 0.00 0.01 0.00 72 1013.5
20260502004531 52 77 0.0 3.5 0.00 0.01 0.00 72 1013.5
20260502003158 52 156 0.0 5.2 0.00 0.01 0.00 71 1013.3
20260502001558 52 149 0.0 3.5 0.00 0.01 0.00 70 1013.0
20260502000054 53 144 0.0 5.2 0.00 0.01 0.00 68 1012.8
20260501234545 54 203 0.0 5.2 0.00 0.01 0.00 65 1012.4
20260501233045 55 162 0.0 6.1 0.00 0.01 0.00 61 1012.2
20260501231544 57 75 1.7 8.7 0.00 0.01 0.00 51 1011.8
20260501230043 58 98 0.0 3.5 0.00 0.03 0.00 45 1011.5
20260501224543 59 110 0.0 5.2 0.00 0.03 0.00 44 1011.6
20260501223042 60 290 0.9 5.2 0.00 0.03 0.00 45 1011.7
20260501221542 61 144 0.0 8.7 0.00 0.03 0.00 41 1011.4
20260501220025 61 117 0.0 7.0 0.00 0.03 0.00 42 1011.5
20260501214524 62 150 0.0 7.0 0.00 0.03 0.00 42 1011.5
20260501213007 62 67 0.0 4.3 0.00 0.03 0.00 41 1011.5
20260501211505 62 291 0.0 5.2 0.00 0.03 0.00 45 1011.5
20260501210105 62 70 2.6 6.1 0.00 0.03 0.00 42 1011.3
20260501204550 63 78 0.9 5.2 0.00 0.03 0.00 41 1011.4
20260501203046 63 186 0.9 5.2 0.00 0.03 0.00 44 1011.2
20260501201530 63 311 0.0 6.1 0.00 0.03 0.00 47 1011.3
20260501200027 62 6 0.0 5.2 0.00 0.03 0.00 43 1011.3
20260501194513 62 219 0.9 5.2 0.00 0.03 0.00 47 1011.4
20260501193020 63 319 1.7 5.2 0.00 0.03 0.00 46 1011.5
20260501191559 64 112 0.0 5.2 0.00 0.03 0.00 44 1011.5
20260501190057 64 198 0.9 3.5 0.00 0.03 0.00 41 1011.8
20260501184558 63 162 0.9 5.2 0.00 0.03 0.00 44 1012.1
20260501183058 62 343 1.7 5.2 0.00 0.03 0.00 38 1012.2
20260501181555 63 352 1.7 6.1 0.00 0.03 0.00 41 1012.0
20260501180051 61 308 0.9 7.0 0.00 0.03 0.00 43 1012.2
20260501174617 60 219 0.9 6.1 0.00 0.03 0.00 43 1012.2
20260501173057 61 33 1.7 7.8 0.00 0.03 0.00 48 1012.3
20260501171535 60 23 0.9 6.1 0.00 0.03 0.00 47 1012.3
20260501170034 60 309 1.7 7.0 0.00 0.03 0.00 43 1012.5
20260501164542 59 330 0.0 5.2 0.00 0.03 0.00 41 1012.6
20260501163030 59 56 0.9 7.0 0.00 0.03 0.00 44 1012.8
20260501161527 58 49 0.0 4.3 0.00 0.03 0.00 56 1013.0
20260501160025 57 203 0.9 4.3 0.00 0.03 0.00 53 1013.2
20260501154545 57 94 0.9 7.0 0.00 0.03 0.00 52 1013.2
20260501153033 57 321 1.7 6.1 0.00 0.03 0.00 56 1013.4